TimeMST,TemperatureF,Dew PointF,Humidity,Sea Level PressureIn,VisibilityMPH,Wind Direction,Wind SpeedMPH,Gust SpeedMPH,PrecipitationIn,Events,Conditions,WindDirDegrees,DateUTC
12:14 AM,26.6,21.2,80,30.08,10.0,SSW,11.5,-,N/A,,Clear,210,2013-03-06 07:14:00
12:31 AM,30.2,21.2,69,30.08,10.0,SSW,10.4,-,N/A,,Clear,210,2013-03-06 07:31:00
12:49 AM,33.8,12.2,41,30.08,10.0,SW,10.4,-,N/A,,Clear,220,2013-03-06 07:49:00
1:14 AM,30.2,14.0,51,30.08,10.0,SSW,8.1,-,N/A,,Clear,200,2013-03-06 08:14:00
1:31 AM,30.2,12.2,47,30.07,10.0,SSW,9.2,-,N/A,,Clear,210,2013-03-06 08:31:00
1:54 AM,28.4,12.2,51,30.07,10.0,SSW,5.8,-,N/A,,Clear,200,2013-03-06 08:54:00
2:09 AM,28.4,12.2,51,30.07,10.0,South,3.5,-,N/A,,Clear,190,2013-03-06 09:09:00
2:34 AM,32.0,8.6,38,30.05,10.0,SW,6.9,-,N/A,,Clear,220,2013-03-06 09:34:00
2:48 AM,30.2,10.4,44,30.05,10.0,SW,12.7,-,N/A,,Clear,230,2013-03-06 09:48:00
3:14 AM,35.6,5.0,28,30.04,10.0,Calm,Calm,-,N/A,,Clear,0,2013-03-06 10:14:00
3:34 AM,37.4,3.2,24,30.03,10.0,SW,10.4,17.3,N/A,,Clear,220,2013-03-06 10:34:00
3:53 AM,35.6,5.0,28,30.04,10.0,SW,3.5,-,N/A,,Clear,230,2013-03-06 10:53:00
4:12 AM,33.8,5.0,30,30.03,10.0,WSW,8.1,-,N/A,,Clear,240,2013-03-06 11:12:00
4:34 AM,37.4,3.2,24,30.04,10.0,SW,9.2,-,N/A,,Clear,230,2013-03-06 11:34:00
4:51 AM,37.4,5.0,26,30.04,10.0,SW,12.7,20.7,N/A,,Clear,230,2013-03-06 11:51:00
5:14 AM,37.4,8.6,30,30.04,10.0,WSW,9.2,-,N/A,,Clear,250,2013-03-06 12:14:00
5:34 AM,35.6,8.6,33,30.03,10.0,WSW,15.0,18.4,N/A,,Clear,240,2013-03-06 12:34:00
5:54 AM,35.6,10.4,35,30.03,10.0,WSW,10.4,-,N/A,,Clear,240,2013-03-06 12:54:00
6:12 AM,35.6,8.6,33,30.03,10.0,WSW,6.9,-,N/A,,Clear,240,2013-03-06 13:12:00
6:33 AM,37.4,8.6,30,30.03,10.0,SSW,3.5,-,N/A,,Clear,200,2013-03-06 13:33:00
6:54 AM,35.6,5.0,28,30.03,10.0,SW,5.8,-,N/A,,Clear,220,2013-03-06 13:54:00
7:12 AM,37.4,10.4,33,30.02,10.0,WSW,9.2,-,N/A,,Clear,240,2013-03-06 14:12:00
7:32 AM,37.4,12.2,36,30.03,10.0,WSW,10.4,-,N/A,,Clear,240,2013-03-06 14:32:00
7:51 AM,37.4,10.4,33,30.03,10.0,SW,8.1,-,N/A,,Clear,230,2013-03-06 14:51:00
8:14 AM,39.2,10.4,31,30.03,10.0,SW,5.8,-,N/A,,Clear,230,2013-03-06 15:14:00
8:34 AM,39.2,12.2,33,30.03,10.0,Calm,Calm,-,N/A,,Clear,0,2013-03-06 15:34:00
8:54 AM,39.2,12.2,33,30.03,10.0,SE,3.5,-,N/A,,Clear,140,2013-03-06 15:54:00
9:11 AM,37.4,17.6,45,30.02,10.0,WSW,5.8,-,N/A,,Clear,240,2013-03-06 16:11:00
9:29 AM,41.0,12.2,31,30.02,10.0,WSW,4.6,-,N/A,,Clear,240,2013-03-06 16:29:00
9:53 AM,42.8,10.4,27,30.02,10.0,South,3.5,-,N/A,,Clear,190,2013-03-06 16:53:00
10:11 AM,42.8,12.2,29,30.01,10.0,SW,5.8,-,N/A,,Clear,230,2013-03-06 17:11:00
10:33 AM,44.6,15.8,31,30.01,10.0,Calm,Calm,-,N/A,,Clear,0,2013-03-06 17:33:00
10:54 AM,44.6,12.2,27,30.00,10.0,SSE,3.5,-,N/A,,Clear,150,2013-03-06 17:54:00
11:12 AM,46.4,17.6,32,30.00,10.0,ESE,6.9,-,N/A,,Clear,120,2013-03-06 18:12:00
11:33 AM,48.2,17.6,30,30.00,10.0,ESE,8.1,-,N/A,,Clear,110,2013-03-06 18:33:00
11:54 AM,44.6,21.2,39,29.99,10.0,East,9.2,-,N/A,,Clear,100,2013-03-06 18:54:00
12:09 PM,46.4,19.4,34,29.97,10.0,East,9.2,-,N/A,,Clear,100,2013-03-06 19:09:00
12:33 PM,50.0,21.2,32,29.96,10.0,ESE,9.2,-,N/A,,Clear,110,2013-03-06 19:33:00
12:54 PM,50.0,19.4,30,29.94,10.0,East,8.1,-,N/A,,Clear,100,2013-03-06 19:54:00
1:09 PM,50.0,17.6,28,29.93,10.0,East,9.2,-,N/A,,Clear,100,2013-03-06 20:09:00
1:29 PM,50.0,21.2,32,29.92,10.0,East,9.2,-,N/A,,Clear,100,2013-03-06 20:29:00
1:49 PM,50.0,17.6,28,29.92,10.0,ESE,9.2,-,N/A,,Clear,110,2013-03-06 20:49:00
2:09 PM,50.0,19.4,30,29.92,10.0,ESE,9.2,-,N/A,,Clear,110,2013-03-06 21:09:00
2:34 PM,50.0,21.2,32,29.91,10.0,East,9.2,-,N/A,,Clear,90,2013-03-06 21:34:00
3:14 PM,51.8,23.0,33,29.91,10.0,SE,9.2,-,N/A,,Clear,130,2013-03-06 22:14:00
3:34 PM,51.8,23.0,33,29.90,10.0,SE,11.5,-,N/A,,Clear,140,2013-03-06 22:34:00
3:49 PM,51.8,23.0,33,29.89,10.0,SE,13.8,-,N/A,,Clear,130,2013-03-06 22:49:00
4:14 PM,46.4,24.8,43,29.89,10.0,SSE,11.5,17.3,N/A,,Clear,150,2013-03-06 23:14:00
4:28 PM,50.0,26.6,40,29.89,10.0,SE,6.9,-,N/A,,Clear,140,2013-03-06 23:28:00
4:54 PM,44.6,30.2,57,29.88,10.0,SSE,12.7,-,N/A,,Clear,160,2013-03-06 23:54:00
5:14 PM,44.6,30.2,57,29.89,10.0,SSE,13.8,-,N/A,,Clear,160,2013-03-07 00:14:00
5:32 PM,44.6,28.4,53,29.89,10.0,SSE,10.4,-,N/A,,Clear,150,2013-03-07 00:32:00
5:54 PM,42.8,28.4,57,29.89,10.0,South,13.8,-,N/A,,Clear,170,2013-03-07 00:54:00
6:14 PM,37.4,28.4,70,29.89,10.0,South,12.7,-,N/A,,Clear,170,2013-03-07 01:14:00
6:29 PM,35.6,28.4,75,29.90,10.0,South,11.5,-,N/A,,Clear,180,2013-03-07 01:29:00
6:48 PM,35.6,28.4,75,29.91,10.0,SSW,12.7,-,N/A,,Clear,200,2013-03-07 01:48:00
7:34 PM,37.4,26.6,65,29.91,10.0,SW,15.0,-,N/A,,Clear,220,2013-03-07 02:34:00
7:54 PM,37.4,26.6,65,29.90,10.0,SSW,9.2,-,N/A,,Clear,210,2013-03-07 02:54:00
8:07 PM,35.6,26.6,70,29.90,10.0,SSW,10.4,-,N/A,,Clear,200,2013-03-07 03:07:00
8:32 PM,35.6,24.8,65,29.90,10.0,SSW,12.7,16.1,N/A,,Clear,200,2013-03-07 03:32:00
8:54 PM,37.4,24.8,60,29.91,10.0,SSW,10.4,-,N/A,,Clear,200,2013-03-07 03:54:00
9:14 PM,35.6,24.8,65,29.91,10.0,SSW,12.7,16.1,N/A,,Clear,210,2013-03-07 04:14:00
9:32 PM,35.6,24.8,65,29.91,10.0,SSW,10.4,-,N/A,,Clear,200,2013-03-07 04:32:00
9:51 PM,35.6,23.0,60,29.91,10.0,SSW,11.5,-,N/A,,Clear,200,2013-03-07 04:51:00
10:11 PM,39.2,23.0,52,29.91,10.0,SW,12.7,-,N/A,,Clear,230,2013-03-07 05:11:00
10:33 PM,37.4,21.2,52,29.90,10.0,SW,11.5,-,N/A,,Clear,220,2013-03-07 05:33:00
10:54 PM,37.4,21.2,52,29.90,10.0,SW,10.4,-,N/A,,Clear,220,2013-03-07 05:54:00
11:14 PM,37.4,17.6,45,29.91,10.0,SW,9.2,-,N/A,,Clear,220,2013-03-07 06:14:00
11:31 PM,39.2,17.6,42,29.91,10.0,WSW,11.5,-,N/A,,Clear,240,2013-03-07 06:31:00
11:54 PM,39.2,17.6,42,29.90,10.0,SSW,10.4,-,N/A,,Clear,210,2013-03-07 06:54:00